Seattle Boeing, WA

5:21 PM PDT on July 25, 2017 (GMT -0700)
Boeing Field-King County International

Weather History for KBFI - March, 2013

Change the Weather History Date:

Monday, March 25, 2013

  Actual Average Record
Temperature  
Mean Temperature 49 °F -  
Max Temperature 62 °F 53 °F 66 °F (1997)
Min Temperature 37 °F 39 °F 31 °F (1954)
Degree Days  
Heating Degree Days 16    
Moisture  
Dew Point 29 °F    
Average Humidity 46    
Maximum Humidity 70    
Minimum Humidity 26    
Precipitation  
Precipitation 0.00 in - - ()
Sea Level Pressure  
Sea Level Pressure 30.03 in    
Wind  
Wind Speed 2 mph (NW)    
Max Wind Speed 9 mph    
Max Gust Speed -    
Visibility 10 miles    
Events      
Averages and records for this station are not official NWS values.
T = Trace of Precipitation, MM = Missing Value Source: NWS Daily Summary

Daily Weather History Graph

Daily Weather History Graph

Search for Another Location

Airport or City:

Trip Planner

Search our weather history database for the weather conditions in past years. The results will help you decide how hot, cold, wet, or windy it might be!

Date:

Astronomy

Mar. 25, 2013 Rise Set
Actual Time 7:01 AM PDT 7:29 PM PDT
Civil Twilight 6:30 AM PDT 8:00 PM PDT
Nautical Twilight 5:54 AM PDT 8:37 PM PDT
Astronomical Twilight 5:16 AM PDT 9:15 PM PDT
Moon 6:03 PM PDT (3/25) 5:53 AM PDT (3/25)
Length of Visible Light 13h 29m
Length of Day
12h 28m
Waxing Gibbous, 97% of the Moon is Illuminated
Mar 25
Waxing Gibbous
Mar 27
Full
Apr 2
Last Quarter
Apr 10
New
Apr 18
First Quarter

Hourly Weather History & Observations

Time (PDT) Temp. Dew Point Humidity Pressure Visibility Wind Dir Wind Speed Gust Speed Precip Events Conditions
12:53 AM 48.0 °F 30.9 °F 52% 30.13 in 10.0 mi Calm Calm - N/A   Mostly Cloudy
1:53 AM 45.0 °F 28.9 °F 53% 30.12 in 10.0 mi Calm Calm - N/A   Partly Cloudy
2:53 AM 42.1 °F 28.0 °F 58% 30.11 in 10.0 mi Calm Calm - N/A   Clear
3:53 AM 39.2 °F 28.4 °F 65% 30.10 in 10.0 mi Calm Calm - N/A   Clear
4:53 AM 39.9 °F 28.9 °F 65% 30.09 in 10.0 mi Calm Calm - N/A   Clear
5:53 AM 39.0 °F 28.9 °F 67% 30.09 in 10.0 mi Calm Calm - N/A   Clear
6:53 AM 37.0 °F 28.0 °F 70% 30.09 in 10.0 mi Calm Calm - N/A   Clear
7:53 AM 39.9 °F 30.0 °F 68% 30.09 in 10.0 mi Calm Calm - N/A   Clear
8:53 AM 46.0 °F 32.0 °F 58% 30.09 in 10.0 mi Calm Calm - N/A   Clear
9:53 AM 50.0 °F 27.0 °F 41% 30.08 in 10.0 mi NNW 3.5 mph - N/A   Clear
10:53 AM 53.1 °F 28.0 °F 38% 30.06 in 10.0 mi Variable 4.6 mph - N/A   Clear
11:53 AM 55.0 °F 28.0 °F 35% 30.05 in 10.0 mi NNW 5.8 mph - N/A   Scattered Clouds
12:53 PM 55.9 °F 27.0 °F 33% 30.03 in 10.0 mi NW 6.9 mph - N/A   Mostly Cloudy
1:53 PM 57.9 °F 28.9 °F 33% 30.01 in 10.0 mi Variable 4.6 mph - N/A   Mostly Cloudy
2:53 PM 59.0 °F 27.0 °F 29% 29.99 in 10.0 mi NW 6.9 mph - N/A   Mostly Cloudy
3:53 PM 60.1 °F 26.1 °F 27% 29.97 in 10.0 mi NW 9.2 mph - N/A   Mostly Cloudy
4:53 PM 61.0 °F 26.1 °F 26% 29.95 in 10.0 mi WNW 8.1 mph - N/A   Mostly Cloudy
5:53 PM 59.0 °F 26.1 °F 28% 29.94 in 10.0 mi WNW 6.9 mph - N/A   Scattered Clouds
6:53 PM 57.9 °F 27.0 °F 31% 29.94 in 10.0 mi NW 6.9 mph - N/A   Mostly Cloudy
7:53 PM 55.0 °F 28.9 °F 37% 29.94 in 10.0 mi WNW 3.5 mph - N/A   Mostly Cloudy
8:53 PM 54.0 °F 33.1 °F 45% 29.96 in 10.0 mi NW 3.5 mph - N/A   Overcast
9:53 PM 53.1 °F 34.0 °F 48% 29.96 in 10.0 mi NW 3.5 mph - N/A   Overcast
10:53 PM 53.1 °F 34.0 °F 48% 29.96 in 10.0 mi Calm Calm - N/A   Overcast
11:53 PM 51.1 °F 35.1 °F 54% 29.97 in 10.0 mi NW 4.6 mph - N/A   Overcast